Weather History for Johnstown, PA

Change the Weather History Date:

Wednesday, February 27, 2013

  Actual Average Record
Temperature  
Mean Temperature 32 °F 30 °F  
Max Temperature 36 °F 37 °F 72 °F (1951)
Min Temperature 28 °F 22 °F -8 °F (1963)
Degree Days  
Heating Degree Days 33 35  
Month to date heating degree days 1027  
Since 1 July heating degree days 4844  
Cooling Degree Days 0 0  
Month to date cooling degree days 0  
Year to date cooling degree days 0  
Moisture  
Dew Point 30 °F    
Average Humidity 93    
Maximum Humidity 100    
Minimum Humidity 75    
Precipitation  
Precipitation 0.10 in 0.09 in 1.23 in (1945)
Month to date precipitation 2.26  
Year to date precipitation 5.14  
Sea Level Pressure  
Sea Level Pressure 29.59 in    
Wind  
Wind Speed 8 mph (WSW)    
Max Wind Speed 21 mph    
Max Gust Speed 28 mph    
Visibility 5 miles    
Events Fog , Rain , Snow    
T = Trace of Precipitation, MM = Missing Value Source: NWS Daily Summary

Daily Weather History Graph

Daily Weather History Graph

Search for Another Location

Airport:

Trip Planner

Search our weather history database for the weather conditions in past years. The results will help you decide how hot, cold, wet, or windy it might be!

Date:

Astronomy

Feb. 27, 2013 Rise Set
Actual Time 6:51 AM EST 6:04 PM EST
Civil Twilight 6:24 AM EST 6:32 PM EST
Nautical Twilight 5:52 AM EST 7:03 PM EST
Astronomical Twilight 5:21 AM EST 7:35 PM EST
Moon 8:24 PM EST (2/27) 7:25 AM EST (2/27)
Length of Visible Light 12h 08m
Length of Day
11h 13m
Waning Gibbous, 96% of the Moon is Illuminated
Feb 27
Waning Gibbous
Mar 4
Last Quarter
Mar 11
New
Mar 19
First Quarter
Mar 27
Full

Hourly Weather History & Observations

Time (EST) Temp. Windchill Dew Point Humidity Pressure Visibility Wind Dir Wind Speed Gust Speed Precip Events Conditions
12:16 AM 32.0 °F 23.0 °F 28.4 °F 87% 29.59 in 10.0 mi ESE 11.5 mph 21.9 mph 0.00 in Rain Light Freezing Rain
12:37 AM 32.0 °F 23.6 °F 28.4 °F 87% 29.57 in 10.0 mi East 10.4 mph 17.3 mph 0.00 in   Overcast
12:54 AM 32.0 °F 24.2 °F 28.9 °F 88% 29.63 in 10.0 mi East 9.2 mph 20.7 mph 0.00 in   Overcast
1:54 AM 30.9 °F 25.2 °F 28.9 °F 92% 29.61 in 9.0 mi East 5.8 mph - N/A   Overcast
2:54 AM 30.9 °F 25.2 °F 30.0 °F 96% 29.60 in 6.0 mi Variable 5.8 mph - 0.00 in Rain Light Freezing Rain
3:54 AM 30.9 °F 27.5 °F 30.0 °F 96% 29.59 in 10.0 mi SE 3.5 mph - 0.00 in   Overcast
4:48 AM 30.2 °F 26.7 °F 30.2 °F 100% 29.53 in 1.2 mi SW 3.5 mph - 0.01 in Snow Light Snow
4:54 AM 30.9 °F - 30.0 °F 96% 29.59 in 0.2 mi Calm Calm - 0.01 in Fog , Snow Light Snow
5:15 AM 30.2 °F 26.7 °F 30.2 °F 100% 29.53 in 0.2 mi SW 3.5 mph - 0.00 in Fog , Snow Light Snow
5:23 AM 30.2 °F 26.7 °F 30.2 °F 100% 29.53 in 0.5 mi SW 3.5 mph - 0.00 in Fog , Snow Light Snow
5:33 AM 30.2 °F 25.4 °F 30.2 °F 100% 29.53 in 1.5 mi SW 4.6 mph - 0.00 in Snow Light Snow
5:50 AM 30.2 °F 25.4 °F 28.4 °F 93% 29.53 in 2.5 mi SW 4.6 mph - 0.00 in Snow Light Snow
5:54 AM 30.0 °F 25.2 °F 28.9 °F 96% 29.60 in 1.8 mi SSW 4.6 mph - 0.00 in Snow Light Snow
6:07 AM 30.2 °F 25.4 °F 30.2 °F 100% 29.53 in 1.5 mi South 4.6 mph - 0.01 in Snow Light Snow
6:15 AM 30.2 °F 25.4 °F 30.2 °F 100% 29.53 in 1.8 mi South 4.6 mph - 0.01 in Snow Light Snow
6:20 AM 30.2 °F 26.7 °F 30.2 °F 100% 29.53 in 2.0 mi SSW 3.5 mph - 0.01 in Snow Light Snow
6:33 AM 30.2 °F 25.4 °F 30.2 °F 100% 29.53 in 4.0 mi SSW 4.6 mph - 0.02 in Snow Light Snow
6:49 AM 30.2 °F 25.4 °F 28.4 °F 93% 29.53 in 2.5 mi SW 4.6 mph - 0.02 in Snow Light Snow
6:54 AM 30.9 °F 25.2 °F 28.9 °F 92% 29.59 in 1.8 mi SSW 5.8 mph - 0.02 in Snow Light Snow
7:20 AM 30.2 °F 24.3 °F 30.2 °F 100% 29.53 in 0.8 mi SW 5.8 mph - 0.00 in Snow Light Snow
7:28 AM 30.2 °F 24.3 °F 30.2 °F 100% 29.53 in 1.5 mi SW 5.8 mph - 0.00 in Snow Light Snow
7:50 AM 30.2 °F 23.4 °F 30.2 °F 100% 29.54 in 2.5 mi SSW 6.9 mph - 0.00 in Snow Light Snow
7:54 AM 30.9 °F 24.3 °F 30.9 °F 100% 29.60 in 2.5 mi SSW 6.9 mph - 0.00 in Snow Light Snow
8:29 AM 32.0 °F 24.2 °F 30.2 °F 93% 29.55 in 1.5 mi WSW 9.2 mph - 0.01 in Snow Light Snow
8:42 AM 32.0 °F 24.2 °F 30.2 °F 93% 29.55 in 2.5 mi WSW 9.2 mph - 0.01 in Snow Light Snow
8:54 AM 32.0 °F 26.4 °F 30.9 °F 96% 29.62 in 2.0 mi WSW 5.8 mph - 0.01 in Snow Light Snow
9:13 AM 33.8 °F 27.7 °F 32.0 °F 93% 29.56 in 3.0 mi WSW 6.9 mph - 0.00 in   Overcast
10:03 AM 33.8 °F 24.8 °F 32.0 °F 93% 29.56 in 6.0 mi WSW 12.7 mph 20.7 mph 0.00 in Rain Light Rain
10:30 AM 33.8 °F 27.0 °F 33.8 °F 100% 29.56 in 1.8 mi West 8.1 mph - 0.01 in Rain Light Rain
10:40 AM 33.8 °F 24.8 °F 33.8 °F 100% 29.56 in 0.8 mi West 12.7 mph - 0.01 in Rain Light Rain
10:54 AM 34.0 °F 25.0 °F 33.1 °F 96% 29.62 in 7.0 mi West 12.7 mph - 0.01 in Rain Light Rain
11:16 AM 33.8 °F 23.2 °F 33.8 °F 100% 29.58 in 10.0 mi West 17.3 mph 21.9 mph 0.01 in Rain Light Rain
11:54 AM 35.1 °F 27.9 °F 33.1 °F 92% 29.63 in 10.0 mi West 9.2 mph 18.4 mph 0.01 in Rain Light Rain
12:32 PM 35.6 °F 26.6 °F 30.2 °F 81% 29.57 in 10.0 mi WSW 13.8 mph 25.3 mph 0.00 in   Overcast
12:50 PM 35.6 °F 26.6 °F 28.4 °F 75% 29.57 in 10.0 mi WSW 13.8 mph 25.3 mph 0.00 in   Overcast
12:54 PM 35.1 °F 26.4 °F 28.9 °F 78% 29.63 in 10.0 mi West 12.7 mph 25.3 mph 0.00 in   Overcast
1:54 PM 35.1 °F 25.9 °F 30.0 °F 82% 29.63 in 10.0 mi West 13.8 mph 19.6 mph N/A   Overcast
2:23 PM 35.6 °F 29.2 °F 30.2 °F 81% 29.58 in 10.0 mi WSW 8.1 mph - N/A   Overcast
2:44 PM 35.6 °F 27.5 °F 30.2 °F 81% 29.58 in 10.0 mi West 11.5 mph - N/A   Overcast
2:54 PM 36.0 °F 27.5 °F 30.0 °F 79% 29.64 in 10.0 mi West 12.7 mph - N/A   Overcast
3:06 PM 35.6 °F 30.7 °F 30.2 °F 81% 29.58 in 10.0 mi WSW 5.8 mph - N/A   Overcast
3:24 PM 33.8 °F 25.8 °F 30.2 °F 87% 29.59 in 2.5 mi West 10.4 mph - 0.01 in Snow Light Snow
3:35 PM 33.8 °F 27.0 °F 32.0 °F 93% 29.59 in 3.0 mi WSW 8.1 mph - 0.02 in Snow Light Snow
3:54 PM 33.1 °F 24.9 °F 32.0 °F 96% 29.65 in 10.0 mi WSW 10.4 mph - 0.02 in   Overcast
4:54 PM 34.0 °F 26.6 °F 32.0 °F 92% 29.65 in 8.0 mi WSW 9.2 mph - 0.00 in   Overcast
5:08 PM 33.8 °F 27.0 °F 32.0 °F 93% 29.60 in 10.0 mi West 8.1 mph - N/A   Overcast
5:54 PM 34.0 °F 27.2 °F 32.0 °F 92% 29.67 in 10.0 mi SW 8.1 mph - N/A   Overcast
5:56 PM 33.8 °F 27.7 °F 30.2 °F 87% 29.60 in 10.0 mi WSW 6.9 mph - N/A   Overcast
6:03 PM 33.8 °F 27.7 °F 30.2 °F 87% 29.60 in 10.0 mi WSW 6.9 mph - N/A   Overcast
6:54 PM 33.1 °F 27.7 °F 30.9 °F 92% 29.67 in 10.0 mi SW 5.8 mph - N/A   Overcast
7:49 PM 33.8 °F 26.4 °F 30.2 °F 87% 29.61 in 5.0 mi WSW 9.2 mph - 0.00 in Snow Light Snow
7:54 PM 33.1 °F 24.9 °F 30.9 °F 92% 29.68 in 4.0 mi WSW 10.4 mph - 0.00 in Snow Light Snow
8:03 PM 33.8 °F 23.2 °F 30.2 °F 87% 29.61 in 2.5 mi WSW 17.3 mph 25.3 mph 0.00 in Snow Light Snow
8:12 PM 33.8 °F 25.3 °F 30.2 °F 87% 29.61 in 3.0 mi WSW 11.5 mph 25.3 mph 0.00 in Snow Light Snow
9:01 PM 32.0 °F 23.0 °F 30.2 °F 93% 29.61 in 6.0 mi WSW 11.5 mph - 0.00 in Snow Light Snow
9:33 PM 32.0 °F 24.8 °F 30.2 °F 93% 29.60 in 6.0 mi WSW 8.1 mph - 0.00 in Snow Light Snow
9:44 PM 32.0 °F 24.2 °F 30.2 °F 93% 29.60 in 2.0 mi WSW 9.2 mph - 0.00 in Snow Light Snow
9:47 PM 32.0 °F 24.8 °F 30.2 °F 93% 29.60 in 3.0 mi WSW 8.1 mph - 0.00 in Snow Light Snow
9:54 PM 32.0 °F 25.6 °F 30.0 °F 92% 29.65 in 5.0 mi WSW 6.9 mph - 0.00 in Snow Light Snow
10:00 PM 32.0 °F 25.6 °F 30.2 °F 93% 29.59 in 2.5 mi WSW 6.9 mph - 0.00 in Snow Light Snow
10:14 PM 30.2 °F 23.4 °F 30.2 °F 100% 29.59 in 3.0 mi West 6.9 mph - 0.00 in Snow Light Snow
10:19 PM 30.2 °F 24.3 °F 30.2 °F 100% 29.59 in 2.0 mi West 5.8 mph - 0.01 in Snow Light Snow
10:26 PM 30.2 °F 23.4 °F 30.2 °F 100% 29.59 in 0.8 mi WSW 6.9 mph - 0.01 in Snow Light Snow
10:47 PM 30.2 °F 24.3 °F 30.2 °F 100% 29.58 in 0.2 mi WSW 5.8 mph - 0.02 in Fog , Snow Light Snow
10:54 PM 30.9 °F 22.2 °F 30.0 °F 96% 29.64 in 0.2 mi WSW 10.4 mph - 0.02 in Fog , Snow Light Snow
11:04 PM 30.2 °F 20.8 °F 30.2 °F 100% 29.59 in 0.5 mi WSW 11.5 mph - 0.00 in Fog , Snow Light Snow
11:17 PM 30.2 °F 22.6 °F 30.2 °F 100% 29.58 in 2.0 mi West 8.1 mph - 0.00 in Snow Light Snow
11:24 PM 30.2 °F 21.3 °F 30.2 °F 100% 29.58 in 4.0 mi West 10.4 mph - 0.00 in Snow Light Snow
11:39 PM 30.2 °F 21.3 °F 28.4 °F 93% 29.58 in 6.0 mi West 10.4 mph - 0.00 in Snow Light Snow
11:52 PM 28.4 °F 15.4 °F 28.4 °F 100% 29.58 in 1.8 mi West 19.6 mph 25.3 mph 0.00 in Snow Light Snow
11:53 PM 28.9 °F 15.8 °F 27.0 °F 92% 29.64 in 1.5 mi West 20.7 mph 27.6 mph 0.00 in Snow Light Snow